|
BREEZE M DEB (TANK) - Orbit
|
Muleshoe NWR;
05:26:11
| Home | Info | Passes |
|
View from above orbital plane
|
View from above satellite
|
Ground track
|
The orbit data is extracted from the following two-line orbital elements,
1 28359U 04022B 13142.07420287 .00007412 00000-0 10331-2 0 9798
2 28359 049.5166 073.1123 4745846 059.1213 011.1111 06.05787369193927
| Epoch (UTC): | 22 May 2013 01:46:51 |
| Eccentricity: | 0.4745846 |
| inclination: | 49.5166° |
| perigee height: | 300 km |
| apogee height: | 12365 km |
| right ascension of ascending node: | 73.1123° |
| argument of perigee: | 59.1213° |
| revolutions per day: | 6.05787369 |
| mean anomaly at epoch: | 11.1111° |
| orbit number at epoch: | 19392 |
The dashed part of the orbit path shows where the satellite is in the earth's shadow,
|
|